Location: Overspoor
(51.4747°N, 5.6641°E)
Time: 13:40:39
(UTC+02:00)

Envisat - Visible Passes

Search period start: 17 October 2018 00:00
Search period end: 27 October 2018 00:00
Orbit: 764 x 766 km, 98.2° (Epoch: 17 October)

Date Brightness Start Highest point End Pass type
(mag) Time Alt. Az. Time Alt. Az. Time Alt. Az.
17 Oct 3.1 20:29:09 10° SSE 20:34:14 80° WSW 20:39:22 10° NNW visible
17 Oct 5.9 22:11:45 10° WSW 22:14:06 13° W 22:16:28 10° WNW visible
18 Oct 3.1 19:52:37 10° SE 19:57:33 54° ENE 20:02:30 10° N visible
18 Oct 5.0 21:32:40 10° SSW 21:36:53 26° W 21:41:07 10° NW visible
19 Oct 3.8 19:16:43 10° ESE 19:21:03 29° ENE 19:25:24 10° N visible
19 Oct 3.8 20:54:57 10° S 20:59:52 50° W 21:04:50 10° NNW visible
20 Oct 2.9 20:17:57 10° SSE 20:23:03 85° ENE 20:28:10 10° NNW visible
20 Oct 5.7 21:59:38 10° SW 22:02:45 16° W 22:05:53 10° NW visible
21 Oct 3.3 19:41:36 10° SE 19:46:25 45° ENE 19:51:15 10° N visible
21 Oct 4.7 21:21:07 10° SSW 21:25:36 31° W 21:30:07 10° NNW visible
22 Oct 4.0 19:05:54 10° ESE 19:09:58 25° ENE 19:14:03 10° N visible
22 Oct 3.5 20:43:37 10° S 20:48:38 61° W 20:53:42 10° NNW visible
23 Oct 2.9 20:06:49 10° SSE 20:11:52 71° ENE 20:16:57 10° N visible
23 Oct 5.4 21:47:46 10° SW 21:51:25 20° W 21:55:06 10° NW visible
24 Oct 3.5 19:30:39 10° SE 19:35:17 37° ENE 19:39:58 10° N visible
24 Oct 4.4 21:09:37 10° SSW 21:14:20 38° W 21:19:05 10° NNW visible
25 Oct 4.2 18:55:09 10° ESE 18:58:54 21° ENE 19:02:39 10° N visible
25 Oct 3.1 20:32:21 10° S 20:37:25 74° WSW 20:42:33 10° NNW visible
25 Oct 5.9 22:15:26 10° WSW 22:17:22 12° W 22:19:18 10° WNW visible
26 Oct 3.0 19:55:45 10° SSE 20:00:43 58° ENE 20:05:43 10° N visible
26 Oct 5.1 21:36:03 10° SW 21:40:07 24° W 21:44:13 10° NW visible
